Regional Weather Roundup
Issued by NWS

Home | Current Version | Previous Version | Graphics & Text | Print | Product List | Glossary On
Versions: 1 2 3 4 5 6 7 8 9 10 11 12 13 14 15 16 17 18 19 20 21 22 23 24 25 26 27 28 29 30 31 32 33 34 35 36 37 38 39 40 41 42 43 44 45 46 47 48 49 50
000
ASUS43 KOAX 280910
RWRNE

WEATHER ROUNDUP FOR NEBRASKA
NATIONAL WEATHER SERVICE OMAHA NE
300 AM CST SUN DEC 28 2014

NOTES: SATELLITE DATA IS BEING USED TO AUGMENT CLOUD COVER ABOVE
       12000 FEET.
       "FAIR" INDICATES FEW OR NO CLOUDS BELOW 12,000 FEET WITH NO
       SIGNIFICANT WEATHER AND/OR OBSTRUCTIONS TO VISIBILITY.

  * THESE STATIONS DO NOT REPORT WEATHER SUCH AS RAIN...SNOW OR FOG.

NEZ001>004-019>022-054>056-281000-
NEBRASKA PANHANDLE

CITY           SKY/WX    TMP DP  RH WIND       PRES   REMARKS
SCOTTSBLUFF    PTCLDY    -2  -6  83 N3        30.01F
ALLIANCE       PTCLDY    -3  -6  87 SW3       29.99F
CHADRON        MOCLDY     1  -3  83 W9        30.02S WCI -14
KIMBALL        PTCLDY     5  -4  67 W5        29.97R WCI  -4
SIDNEY         MOCLDY     0  -6  76 W7        30.02F WCI -13
$$

NEZ057>060-069>072-079>082-281000-
SOUTHWEST NEBRASKA

CITY           SKY/WX    TMP DP  RH WIND       PRES   REMARKS
NORTH PLATTE   PTCLDY    -2  -6  83 NW7       30.10S WCI -15
IMPERIAL       PTCLDY    -1  -6  79 SW6       30.09S WCI -13
LEXINGTON      PTCLDY     1  -2  85 N3        30.12S
MCCOOK         PTCLDY     4   2  91 W5        30.14S WCI  -5
OGALLALA       PTCLDY     0  -4  83 SW6       30.08S WCI -11
$$

NEZ005>010-023>029-035>040-094-281000-
NORTH CENTRAL NEBRASKA

CITY           SKY/WX    TMP DP  RH WIND       PRES   REMARKS
VALENTINE      PTCLDY     1  -2  87 SW6       30.05S WCI -10
AINSWORTH      PTCLDY     8   2  80 W7        30.05R WCI  -4
BROKEN BOW     PTCLDY    11   5  77 SE5       30.08S WCI   3
O`NEILL        PTCLDY    10   7  89 W7        30.08R WCI  -2
ORD            PTCLDY     4   1  88 SW5       30.10R WCI  -5
THEDFORD       PTCLDY    12   7  81 CALM      30.05S
$$

NEZ041-046>049-061>064-073>077-083>087-281000-
SOUTH CENTRAL NEBRASKA

CITY           SKY/WX    TMP DP  RH WIND       PRES   REMARKS
GRAND ISLAND     N/A     12   7  80 SW7       30.14S WCI   1
AURORA         PTCLDY    13   9  83 W6        30.13S WCI   4
HASTINGS       CLEAR     14   9  80 SW7       30.13S WCI   4
HEBRON         CLEAR     16  12  84 W3        30.18F
HOLDREGE       PTCLDY    14   8  76 W6        30.13S WCI   5
KEARNEY *      CLEAR     12   9  85 SW6       30.12F WCI   3
YORK           CLEAR     10   7  85 SW7       30.15S WCI   0
$$

NEZ011>018-030>034-042>045-281000-
NORTHEAST NEBRASKA

CITY           SKY/WX    TMP DP  RH WIND       PRES   REMARKS
NORFOLK        PTCLDY     7   5  91 CALM      30.10F
ALBION         PTCLDY    13   8  78 NW6       30.10F WCI   4
BLAIR          CLEAR     19  14  83 CALM      30.14S
COLUMBUS *     CLEAR     12   3  67 W6        30.15S WCI   3
FREMONT        FAIR      17  13  84 SW5       30.16S WCI  10
TEKAMAH        CLEAR     12   8  84 SE7       30.16F WCI   1
WAYNE          CLEAR     10   7  86 CALM      30.11S
$$

NEZ050>053-065>068-078-088>093-281000-
SOUTHEAST NEBRASKA

CITY           SKY/WX    TMP DP  RH WIND       PRES   REMARKS
LINCOLN        CLEAR     18  13  80 W5        30.18F WCI  11
OMAHA EPPLEY   CLEAR     18  14  84 S8        30.19S WCI   8
BEATRICE       CLEAR     15  12  88 CALM      30.19S
FALLS CITY     CLEAR     19  14  81 SW3       30.22S
NEBRASKA CITY  CLEAR     17  12  82 S5        30.18F WCI   9
PLATTSMOUTH    CLEAR     16  13  85 S6        30.17F WCI   8
$$

NEZ044-045-051>053-067-281000-
OMAHA AREA

CITY           SKY/WX    TMP DP  RH WIND       PRES   REMARKS
OMAHA EPPLEY   CLEAR     18  14  84 S8        30.19S WCI   8
BLAIR          CLEAR     19  14  83 CALM      30.14S
FREMONT        FAIR      17  13  84 SW5       30.16S WCI  10
MILLARD        CLEAR     19  15  86 CALM      30.18S
OFFUTT AFB     CLEAR     16  13  87 SE2       30.17F
PLATTSMOUTH    CLEAR     16  13  85 S6        30.17F WCI   8
WAHOO          FAIR      15  11  83 SW5       30.16S WCI   7
$$


USA.gov is the U.S. government's official web portal to all federal, state and local government web resources and services.